LiveATC.Net - Listen to live air traffic control over the Internet!

Find LiveATC Audio Streams


Airport/ARTCC Code

Frequency Search
(e.g., 124.400, 128.75)
Site-wide search
 


Browse LiveATC Feeds
LiveATC Coverage Map
Top 50 LiveATC Feeds
Bad Weather Areas

LiveATC FAQ
Offer a LiveATC Feed
Contact LiveATC.net
Press Inquiries

LiveATC on iPhone
LiveATC on Android

Windows Phone
Windows 8/10

LiveATC Mobile
(Mobile browser)

ATC Audio Archives
Interesting Recordings

LiveATC Forums

Home Page
About LiveATC.net
Make a Donation
Terms of Use
Privacy Policy

Canadian Air Freqs

AIRMETs/SIGMETs

FAA Airport Status
Nat'l Airspace Status
Arrival Demand Charts


Server Software By:
Icecast.org
Liquidsoap

Select an area of interest:
U.S. Feeds: Class B Airports | Class C Airports | Class D/Other Airports | ARTCC (Centers)
International Feeds: Canada | Europe | Oceania | Asia | South America | North/Central America | Africa
Misc Feeds: HF Feeds
Search by ICAO/IATA airport code:   (e.g., kbos, kjfk, lax, eham, etc.)


Currently Available Live Feeds: 1922
Status Updated: Sun Dec 17 2017 23:18:01 UTC


NOTICE

Unauthorized use prohibited. See LiveATC.net Terms of Service

Africa Airport Feeds

 

FIMP Twr/App/Ctr #1 (Archives)
Plaine Magnien, Mauritius

Feed Status: UP

Click on your favorite media player to listen:
Listen with WinAmp to FIMP Twr/App/Ctr #1  Listen with iTunes to FIMP Twr/App/Ctr #1  Click here to listen if using Real Player  Click here to listen if using Windows Media Player

Or simply listen in your browser:

Listen right in your browser(in browser, requires Flash)

FIMP 172200Z 10006KT 9999 FEW018 SCT250 26/21 Q1016


Listeners: 0 out of 1142 total

FIMP Approach: 119.100
FIMP Tower: 118.100
FMEE Approach/Departure: 127.200
Mauritius Centre: 129.300

FIMP Twr/App/Ctr #2
Plaine Magnien, Mauritius

Feed Status: DOWN
Offline since: 2017-12-17 23:15:02 UTC
FIMP 172200Z 10006KT 9999 FEW018 SCT250 26/21 Q1016

FIMP Approach: 119.100
FIMP Tower: 118.100
Mauritius Centre: 129.300

FMEE Tower (Archives)
Sainte-Marie, Reunion

Feed Status: UP

Click on your favorite media player to listen:
Listen with WinAmp to FMEE Tower  Listen with iTunes to FMEE Tower  Click here to listen if using Real Player  Click here to listen if using Windows Media Player

Or simply listen in your browser:

Listen right in your browser(in browser, requires Flash)

FMEE 172230Z AUTO 12008KT CAVOK 25/20 Q1015 NOSIG


Listeners: 0 out of 1142 total

Gillot Tower: 118.400

FMEP Info
Saint-Pierre, Reunion

Feed Status: DOWN
Offline since: 2017-12-17 19:14:05 UTC
FMEP 172230Z AUTO 03007KT 9999 NCD 24/17 Q1015

Saint-Pierre Info: 122.400

FMMI Twr/App/Center (Archives)
Antananarivo, Madagascar

Feed Status: UP

Click on your favorite media player to listen:
Listen with WinAmp to FMMI Twr/App/Center  Listen with iTunes to FMMI Twr/App/Center  Click here to listen if using Real Player  Click here to listen if using Windows Media Player

Or simply listen in your browser:

Listen right in your browser(in browser, requires Flash)

FMMI 172230Z 13004KT 100V180 9999 FEW010 BKN020 17/17 Q1021 NOSIG


Listeners: 0 out of 1142 total

Ivato Approach: 125.700
Ivato Tower: 120.100
Tana Control: 128.900

GOOY Tower/Control
Dakar, Senegal

Feed Status: DOWN
Offline since: 2017-12-14 08:41:01 UTC
GOOY 172200Z 36008KT 8000 NSC 21/17 Q1016

Dakar Control: 120.500
Dakar Tower: 118.100

HKJK Gnd/Twr/Radar (Archives)
Nairobi, Kenya

Feed Status: UP

Click on your favorite media player to listen:
Listen with WinAmp to HKJK Gnd/Twr/Radar  Listen with iTunes to HKJK Gnd/Twr/Radar  Click here to listen if using Real Player  Click here to listen if using Windows Media Player

Or simply listen in your browser:

Listen right in your browser(in browser, requires Flash)

HKJK 172230Z 02009KT 9999 FEW018 17/14 Q1022 NOSIG


Listeners: 0 out of 1142 total

Nairobi Ground: 121.600
Nairobi Radar: 122.300
Nairobi Tower: 118.700
Wilson Airport Tower: 118.100